EW0734 Weather Reports


Display with metric or nautical units.
time (UTC)temp
F
wind
direction
speed
MPH
gust
MPH
rain 1hr
in
rain 24hr
in
rain mn
in
humidity
%
barometer
mb
20260906025549 71 0.0 0.0 0.00 0.00 0.00 51 1011.1
20260906024530 71 0.0 0.0 0.00 0.00 0.00 52 1011.0
20260906023528 71 0.0 0.0 0.00 0.00 0.00 53 1011.1
20260906022528 71 0.0 0.0 0.00 0.00 0.00 54 1011.1
20260906021536 71 0.0 0.0 0.00 0.00 0.00 58 1011.0
20260906020529 71 0.0 0.0 0.00 0.00 0.00 57 1010.9
20260906015529 71 0.0 0.0 0.00 0.00 0.00 55 1010.8
20260906014529 71 0.0 0.0 0.00 0.00 0.00 56 1010.9
20260906013530 71 0.0 0.0 0.00 0.00 0.00 60 1010.7
20260906012528 72 0.0 0.0 0.00 0.00 0.00 61 1010.5
20260906011528 72 0.0 0.0 0.00 0.00 0.00 58 1010.1
20260906010530 72 0.0 0.0 0.00 0.00 0.00 60 1010.2
20260906005529 72 0.0 0.0 0.00 0.00 0.00 60 1010.0
20260906004529 72 0.0 0.0 0.00 0.00 0.00 64 1010.0
20260906003529 73 0.0 0.0 0.00 0.00 0.00 64 1009.9
20260906002529 73 0.0 0.0 0.00 0.00 0.00 64 1009.7
20260906001528 73 0.0 0.0 0.00 0.00 0.00 65 1009.7
20260906000529 73 0.0 0.0 0.00 0.00 0.00 66 1009.6
20260905235530 73 0.0 0.0 0.00 0.00 0.00 69 1009.6
20260905234528 73 0.0 0.0 0.00 0.00 0.00 71 1009.7
20260905233529 74 0.0 0.0 0.00 0.00 0.00 73 1009.8
20260905232530 74 0.0 0.0 0.00 0.00 0.00 73 1009.8
20260905231530 74 0.0 0.0 0.00 0.00 0.00 77 1009.6
20260905230528 74 0.0 0.0 0.00 0.00 0.00 82 1009.6
20260905225529 75 0.0 0.0 0.00 0.00 0.00 76 1009.4
20260905224528 75 0.0 0.0 0.00 0.00 0.00 75 1009.6
20260905223528 75 0.0 0.0 0.00 0.00 0.00 76 1009.6
20260905222530 76 0.0 0.0 0.00 0.00 0.00 77 1009.5
20260905221528 76 0.0 0.0 0.00 0.00 0.00 79 1009.4
20260905220530 75 0.0 0.0 0.00 0.00 0.00 79 1009.4
20260905215529 75 0.0 0.0 0.00 0.00 0.00 85 1009.2
20260905214528 76 0.0 0.0 0.00 0.00 0.00 85 1009.0
20260905213529 75 0.0 0.0 0.00 0.00 0.00 87 1009.2
20260905212528 75 0.0 0.0 0.00 0.00 0.00 92 1009.3
20260905211529 76 0.0 0.0 0.00 0.00 0.00 92 1009.1
20260905210528 76 0.0 0.0 0.00 0.00 0.00 92 1009.2
20260905205648 76 0.0 0.0 0.00 0.00 0.00 92 1009.0
20260905204609 76 0.0 0.0 0.00 0.00 0.00 92 1009.1
20260905203528 76 0.0 0.0 0.00 0.00 0.00 92 1009.1
20260905202528 75 0.0 0.0 0.00 0.00 0.00 91 1009.1
20260905201528 75 0.0 0.0 0.00 0.00 0.00 91 1009.2
20260905200550 76 0.0 0.0 0.00 0.00 0.00 92 1009.2
20260905195528 76 0.0 0.0 0.00 0.00 0.00 92 1009.2
20260905194528 77 0.0 0.0 0.00 0.00 0.00 92 1009.3
20260905193551 77 0.0 0.0 0.00 0.00 0.00 92 1009.5
20260905192530 76 0.0 0.0 0.00 0.00 0.00 92 1009.6
20260905191529 76 0.0 0.0 0.00 0.00 0.00 92 1009.6
20260905190529 76 0.0 0.0 0.00 0.00 0.00 90 1009.6
20260905185549 75 0.0 0.0 0.00 0.00 0.00 91 1009.7
20260905184528 75 0.0 0.0 0.00 0.00 0.00 89 1009.9
20260905183530 75 0.0 0.0 0.00 0.00 0.00 86 1010.2
20260905182530 75 0.0 0.0 0.00 0.00 0.00 77 1010.0
20260905181550 74 0.0 0.0 0.00 0.00 0.00 81 1009.9
20260905180530 74 0.0 0.0 0.00 0.00 0.00 85 1009.6
20260905175531 74 0.0 0.0 0.00 0.00 0.00 85 1009.4
20260905174528 74 0.0 0.0 0.00 0.00 0.00 85 1009.3
20260905173529 74 0.0 0.0 0.00 0.00 0.00 83 1009.3
20260905172530 73 0.0 0.0 0.00 0.00 0.00 82 1009.7
20260905171529 73 0.0 0.0 0.00 0.00 0.00 87 1010.0
20260905170529 72 0.0 0.0 0.00 0.00 0.00 91 1010.0
20260905165529 73 0.0 0.0 0.00 0.00 0.00 92 1010.5
20260905164530 74 0.0 0.0 0.00 0.00 0.00 91 1011.0
20260905163530 76 0.0 0.0 0.00 0.00 0.00 88 1012.2
20260905162529 77 0.0 0.0 0.00 0.00 0.00 87 1011.8
20260905161529 78 0.0 0.0 0.00 0.00 0.00 84 1011.4
20260905160529 78 0.0 0.0 0.00 0.00 0.00 83 1011.4
20260905155554 79 0.0 0.0 0.00 0.00 0.00 83 1011.3
20260905154529 79 0.0 0.0 0.00 0.00 0.00 82 1011.2
20260905153550 79 0.0 0.0 0.00 0.00 0.00 82 1010.9
20260905152549 79 0.0 0.0 0.00 0.00 0.00 82 1010.8
20260905151530 80 0.0 0.0 0.00 0.00 0.00 81 1011.0
20260905150530 80 0.0 0.0 0.00 0.00 0.00 81 1011.1
20260905145529 79 0.0 0.0 0.00 0.00 0.00 82 1011.0
20260905144533 79 0.0 0.0 0.00 0.00 0.00 83 1011.2
20260905143530 79 0.0 0.0 0.00 0.00 0.00 83 1011.2
20260905142550 79 0.0 0.0 0.00 0.00 0.00 83 1011.1
20260905141529 79 0.0 0.0 0.00 0.00 0.00 83 1011.0
20260905140529 80 0.0 0.0 0.00 0.00 0.00 83 1010.9
20260905135529 79 0.0 0.0 0.00 0.00 0.00 83 1010.7
20260905134529 79 0.0 0.0 0.00 0.00 0.00 86 1010.5
20260905133549 78 0.0 0.0 0.00 0.00 0.00 84 1010.4
20260905132529 78 0.0 0.0 0.00 0.00 0.00 87 1010.4
20260905131530 75 0.0 0.0 0.00 0.00 0.00 92 1010.5
20260905130530 74 0.0 0.0 0.00 0.00 0.00 91 1010.5
20260905125530 73 0.0 0.0 0.00 0.00 0.00 85 1010.4
20260905124530 72 0.0 0.0 0.00 0.00 0.00 76 1010.4
20260905123529 72 0.0 0.0 0.00 0.00 0.00 69 1010.3
20260905122530 72 0.0 0.0 0.00 0.00 0.00 56 1010.2
20260905121609 71 0.0 0.0 0.00 0.00 0.00 50 1010.3
20260905120530 70 0.0 0.0 0.00 0.00 0.00 52 1010.4
20260905115529 69 0.0 0.0 0.00 0.00 0.00 55 1010.3
20260905114528 0 0.0 0.0 0.00 0.00 0.00
20260905113528 0 0.0 0.0 0.00 0.00 0.00
20260905113025 0 0.0 0.0 0.00 0.00 0.00
20260905112618 0 0.0 0.0 0.00 0.00 0.00
20260905112027 0 0.0 0.0 0.00 0.00 0.00
20260905111028 0 0.0 0.0 0.00 0.00 0.00
20260905110507 0 0.0 0.0 0.00 0.00 0.00
20260905110054 0 0.0 0.0 0.00 0.00 0.00
20260905105528 0 0.0 0.0 0.00 0.00 0.00
20260905104528 0 0.0 0.0 0.00 0.00 0.00
20260905104121 0 0.0 0.0 0.00 0.00 0.00
20260905103532 0 0.0 0.0 0.00 0.00 0.00
20260905103028 0 0.0 0.0 0.00 0.00 0.00
20260905102027 0 0.0 0.0 0.00 0.00 0.00
20260905101505 0 0.0 0.0 0.00 0.00 0.00
20260905100527 0 0.0 0.0 0.00 0.00 0.00
20260905095527 0 0.0 0.0 0.00 0.00 0.00
20260905095059 0 0.0 0.0 0.00 0.00 0.00
20260905094527 0 0.0 0.0 0.00 0.00 0.00
20260905094027 0 0.0 0.0 0.00 0.00 0.00
20260905093028 0 0.0 0.0 0.00 0.00 0.00
20260905092522 0 0.0 0.0 0.00 0.00 0.00
20260905092048 0 0.0 0.0 0.00 0.00 0.00
20260905091527 0 0.0 0.0 0.00 0.00 0.00
20260905090547 0 0.0 0.0 0.00 0.00 0.00
20260905090030 0 0.0 0.0 0.00 0.00 0.00
20260905085528 0 0.0 0.0 0.00 0.00 0.00
20260905085047 0 0.0 0.0 0.00 0.00 0.00
20260905084028 0 0.0 0.0 0.00 0.00 0.00
20260905083619 0 0.0 0.0 0.00 0.00 0.00
20260905082527 0 0.0 0.0 0.00 0.00 0.00
20260905081528 0 0.0 0.0 0.00 0.00 0.00
20260905081008 0 0.0 0.0 0.00 0.00 0.00
20260905080028 0 0.0 0.0 0.00 0.00 0.00
20260905075027 0 0.0 0.0 0.00 0.00 0.00
20260905074530 0 0.0 0.0 0.00 0.00 0.00
20260905073527 0 0.0 0.0 0.00 0.00 0.00
20260905072527 0 0.0 0.0 0.00 0.00 0.00
20260905072120 0 0.0 0.0 0.00 0.00 0.00
20260905071533 0 0.0 0.0 0.00 0.00 0.00
20260905071027 0 0.0 0.0 0.00 0.00 0.00
20260905070027 0 0.0 0.0 0.00 0.00 0.00
20260905065506 0 0.0 0.0 0.00 0.00 0.00
20260905065104 0 0.0 0.0 0.00 0.00 0.00
20260905064528 0 0.0 0.0 0.00 0.00 0.00
20260905063548 0 0.0 0.0 0.00 0.00 0.00
20260905063030 0 0.0 0.0 0.00 0.00 0.00
20260905062621 0 0.0 0.0 0.00 0.00 0.00
20260905062027 0 0.0 0.0 0.00 0.00 0.00
20260905061027 0 0.0 0.0 0.00 0.00 0.00
20260905060621 0 0.0 0.0 0.00 0.00 0.00
20260905060034 0 0.0 0.0 0.00 0.00 0.00
20260905055528 0 0.0 0.0 0.00 0.00 0.00
20260905054527 0 0.0 0.0 0.00 0.00 0.00
20260905054048 0 0.0 0.0 0.00 0.00 0.00 89
20260905053549 71 0.0 0.0 0.00 0.00 0.00 89 1011.0
20260905052529 71 0.0 0.0 0.00 0.00 0.00 89 1011.2
20260905051548 71 0.0 0.0 0.00 0.00 0.00 88 1011.2
20260905050550 71 0.0 0.0 0.00 0.00 0.00 88 1011.3
20260905045528 71 0.0 0.0 0.00 0.00 0.00 88 1011.5
20260905044529 71 0.0 0.0 0.00 0.00 0.00 85 1011.3
20260905043528 71 0.0 0.0 0.00 0.00 0.00 87 1011.3
20260905042529 71 0.0 0.0 0.00 0.00 0.00 87 1011.4
20260905041529 71 0.0 0.0 0.00 0.00 0.00 87 1011.6
20260905040538 71 0.0 0.0 0.00 0.00 0.00 87 1011.7
20260905035529 71 0.0 0.0 0.00 0.00 0.00 89 1011.7
20260905034549 72 0.0 0.0 0.00 0.00 0.00 90 1011.6
20260905033549 72 0.0 0.0 0.00 0.00 0.00 91 1011.5
20260905032529 72 0.0 0.0 0.00 0.00 0.00 91 1011.5
20260905031529 72 0.0 0.0 0.00 0.00 0.00 91 1011.5
20260905030548 72 0.0 0.0 0.00 0.00 0.00 91 1011.7